Probability
0 0 0 0 0 0 0 0 0 0 0 0 0 1 2 5 7 7 7 7 8 11 12 13 17 21 20 17 17 17 14 10 6 4 2 1 0 0 0 0 0 0 0 0
0 0 0 0 0 0 0 0 0 0 0 0 0 0 1 3 5 6 7 7 10 13 15 16 18 22 22 21 21 19 15 10 7 5 3 1 0 0 0 0 0 0 0 0
0 0 0 0 0 0 0 0 0 0 0 0 0 0 1 2 3 5 7 9 13 16 18 19 20 24 25 25 24 23 18 14 11 8 7 4 2 2 1 1 0 0 0 0
0 0 0 0 0 0 0 0 0 0 0 0 0 0 0 1 2 4 7 11 16 18 19 19 21 24 26 27 27 25 24 22 19 15 12 10 7 5 3 2 0 0 0 0
0 0 0 0 0 0 0 0 0 0 0 0 0 0 0 1 2 4 6 11 15 18 17 18 19 21 24 27 28 27 28 27 24 20 17 14 11 7 4 2 1 1 1 1
0 0 0 0 0 0 0 0 0 0 0 0 0 0 0 0 1 3 5 9 13 17 17 16 17 18 22 27 28 28 28 27 24 22 20 17 13 9 6 3 2 2 2 2
0 0 0 0 0 0 0 0 0 0 0 0 0 0 0 0 0 1 3 7 12 15 15 14 15 17 21 28 31 29 27 25 24 23 22 19 15 11 8 4 3 2 2 2
0 0 0 0 0 0 0 0 0 0 0 0 0 0 0 0 0 0 2 7 11 12 12 13 14 17 22 27 31 31 28 24 23 24 22 18 14 12 9 4 1 1 1 1
0 0 0 0 0 0 0 0 0 0 0 0 0 0 0 0 0 1 3 6 10 10 11 13 15 17 21 24 27 30 29 25 23 23 21 16 12 11 8 4 1 0 0 0
0 0 0 0 0 0 0 0 0 0 0 0 0 0 0 0 0 1 2 5 8 10 12 15 16 18 20 20 21 23 25 24 22 20 18 15 11 9 7 4 1 1 1 0
0 0 0 0 0 0 0 0 0 0 0 0 0 0 0 0 0 0 2 5 8 10 12 14 16 19 20 18 15 16 18 18 17 16 15 13 11 8 6 4 3 2 2 1
0 0 0 0 0 0 0 0 0 0 0 0 0 0 0 0 0 1 3 6 8 10 11 12 16 20 21 17 12 11 13 14 14 14 14 12 10 9 8 6 4 3 3 2
0 0 0 0 0 0 0 0 0 0 0 0 0 0 0 0 0 2 4 6 8 11 13 14 18 23 22 17 13 11 11 12 14 14 13 11 9 10 9 8 6 4 3 3
0 0 0 0 0 0 0 0 0 0 0 0 0 0 0 0 0 1 4 7 10 15 18 19 22 24 22 18 16 15 12 12 13 15 14 11 9 9 10 9 7 6 4 4
0 0 0 0 0 0 0 0 0 0 0 0 0 0 0 0 0 2 5 9 15 18 21 24 26 25 22 20 18 18 15 12 14 16 14 11 10 10 11 11 10 9 7 6
0 0 0 0 0 0 0 0 0 0 0 0 0 0 0 1 2 4 8 14 20 23 26 31 32 29 26 24 22 20 18 15 17 17 14 13 13 14 13 12 12 13 11 8
0 0 0 0 0 0 0 0 0 0 0 0 1 1 2 3 4 7 11 18 24 28 33 37 35 31 28 26 24 22 21 19 19 19 16 15 17 16 15 13 13 14 12 9
0 0 0 0 0 0 0 0 0 1 2 3 4 5 6 6 7 9 14 20 26 31 35 37 35 30 28 29 28 26 24 21 20 19 17 15 15 14 12 11 12 12 11 9
0 0 0 0 0 0 0 1 2 3 5 7 9 11 9 8 9 13 17 23 28 32 36 38 35 33 34 35 34 32 28 23 20 18 17 15 13 11 10 10 10 10 9 8
0 0 0 0 0 0 0 2 4 4 5 10 14 14 12 11 11 15 23 30 34 37 41 41 40 38 39 39 37 34 29 24 20 17 16 16 14 12 12 11 9 8 7 6
0 0 0 0 0 0 1 3 4 3 5 11 16 17 17 19 20 22 30 38 41 43 45 46 43 39 37 36 34 33 29 25 21 18 17 17 15 13 13 13 10 8 6 5
0 0 0 0 0 0 2 4 4 4 8 13 17 20 23 29 33 34 37 41 44 46 48 48 44 39 35 32 33 33 31 27 24 19 17 17 16 13 12 11 9 9 8 8
0 0 0 1 2 3 5 7 8 10 14 18 21 26 31 36 39 40 40 40 41 43 45 44 41 37 32 30 32 34 32 28 22 16 14 15 15 13 11 10 8 8 8 9
1 1 1 3 6 8 10 11 11 14 19 24 26 31 36 39 38 38 37 34 34 35 34 34 33 30 27 26 27 28 27 23 17 11 10 12 13 12 10 9 8 7 6 5
2 2 2 4 6 10 11 11 12 17 24 28 28 30 35 38 37 35 31 27 24 23 21 20 22 21 19 19 20 20 19 17 14 11 10 10 10 10 8 7 6 4 3 2
1 2 3 4 4 7 9 10 11 18 27 30 27 26 30 35 37 32 27 22 17 15 14 13 13 13 13 14 16 16 15 16 14 12 9 7 8 9 7 4 2 1 1 1
Wind_Speed
4 5 1 4 4 3 2 1 3 4 2 2 3 3 3 6 6 7 7 7 7 8 6 5 6 7 7 7 7 8 8 7 5 4 3 3 2 2 2 2 4 5 5 5
5 2 4 3 3 2 2 0 2 3 2 2 1 2 2 6 8 8 9 9 9 7 5 6 6 7 8 8 8 8 8 7 7 5 4 2 2 2 2 2 2 4 4 5
3 5 2 1 1 1 1 3 3 1 2 4 3 4 2 2 3 4 6 7 7 9 8 7 7 7 7 8 9 9 8 8 7 5 3 2 1 1 1 1 2 3 4 5
3 4 1 0 1 4 2 4 3 2 3 2 2 2 6 3 3 6 7 8 9 9 8 7 8 8 9 9 7 7 7 7 6 6 5 5 4 3 3 2 2 3 4 4
4 2 0 2 3 5 3 2 4 3 3 3 3 1 8 2 5 8 9 10 10 9 9 9 9 9 8 7 7 6 6 6 6 6 7 5 4 3 2 1 2 3 2 3
4 3 3 4 1 3 5 7 7 6 6 2 1 2 7 5 8 6 7 9 10 9 9 8 7 6 6 6 6 7 7 6 6 7 6 6 6 4 4 3 3 3 2 2
3 3 3 2 1 3 5 7 5 6 5 4 3 2 10 8 7 7 8 9 9 9 8 8 7 7 7 8 8 7 8 7 6 7 6 6 6 6 6 4 4 3 2 2
3 6 4 4 6 5 4 9 8 5 4 5 3 4 9 6 5 4 5 6 7 7 7 8 8 7 8 8 8 8 8 7 6 7 6 5 5 4 3 4 3 3 3 3
7 7 5 3 3 10 6 3 7 8 3 1 5 7 9 3 2 1 4 6 7 8 8 8 7 7 7 8 8 8 8 6 6 6 6 5 5 4 4 3 3 3 3 3
10 4 4 3 4 4 5 10 7 7 6 2 5 5 5 5 4 2 4 6 7 6 7 6 6 6 6 6 6 7 7 7 6 6 5 5 4 4 4 3 3 3 3 3
7 5 3 2 4 6 5 5 6 5 6 7 2 8 8 8 7 7 8 7 8 8 8 7 6 5 5 5 6 6 6 6 5 5 5 4 4 4 4 3 3 3 3 3
5 6 4 7 4 3 5 8 9 7 5 5 5 10 7 6 7 7 7 6 6 6 6 5 5 5 5 6 6 7 7 6 6 5 5 4 4 3 3 3 3 3 3 3
7 7 2 6 4 0 3 5 5 7 7 6 6 10 5 3 3 5 6 6 5 5 5 5 5 5 6 6 6 6 7 6 6 5 5 5 4 4 4 4 3 3 2 2
8 6 8 11 10 6 5 5 6 7 6 6 8 9 8 6 5 6 6 6 6 6 6 6 6 6 6 6 6 6 6 6 6 6 5 5 5 4 4 3 3 2 2 2
6 5 5 6 5 5 5 7 8 7 9 10 9 9 12 9 8 7 5 5 6 6 7 8 7 6 6 6 5 6 6 6 6 6 6 5 4 3 3 3 2 2 1 2
3 4 3 2 3 4 3 5 8 6 6 6 4 8 9 5 3 3 5 6 8 9 9 8 8 8 7 7 7 6 6 6 6 6 5 4 3 3 3 2 2 1 1 1
2 5 5 3 1 3 5 7 7 5 5 7 7 8 3 2 4 6 6 7 9 10 9 9 9 9 8 8 8 7 6 6 5 5 4 3 3 3 3 3 2 2 1 1
5 5 4 3 4 6 10 3 4 4 3 4 4 4 4 6 4 2 3 6 7 7 7 7 7 7 6 6 6 6 6 6 5 5 4 3 3 3 2 2 2 1 1 1
5 7 5 4 5 4 4 1 3 4 3 2 3 3 2 1 3 2 2 3 5 6 5 5 5 5 5 5 5 6 6 5 5 4 4 4 4 4 3 2 2 1 1 1
4 5 6 5 5 7 6 3 2 3 2 2 1 2 1 3 2 4 2 0 2 3 3 4 4 5 5 5 6 6 5 4 4 3 3 3 3 3 3 3 2 1 1 2
3 4 4 4 3 5 4 6 1 4 6 2 1 2 3 4 4 2 2 2 3 4 4 5 6 5 4 4 6 6 4 3 3 2 2 3 3 3 3 2 2 2 2 1
3 4 3 4 3 5 5 4 2 4 3 1 1 1 2 2 2 3 4 5 5 5 6 5 6 6 4 4 6 5 3 2 2 3 3 3 3 3 2 2 2 2 2 2
2 4 5 5 5 3 3 2 3 2 1 1 1 1 4 4 4 5 5 5 5 5 5 5 6 6 5 4 4 5 2 2 3 3 3 2 3 3 3 3 2 1 1 1
2 1 2 0 2 3 3 4 4 3 1 1 1 2 4 5 5 5 5 4 5 5 4 4 6 6 5 4 4 3 3 3 3 3 2 2 2 2 2 2 2 1 1 1
2 1 2 0 2 4 4 5 5 4 4 5 4 3 4 6 5 5 4 4 4 5 4 5 5 4 4 4 4 3 3 4 3 3 3 2 2 2 2 2 2 1 1 1
2 3 3 3 3 2 3 4 4 4 4 4 4 5 4 5 5 5 4 4 4 4 4 5 5 4 3 3 3 3 3 3 3 2 2 1 1 2 2 2 2 4 3 3
Wind_Direction
35 67 161 214 192 184 173 194 281 269 246 151 208 247 221 179 181 185 188 191 199 207 203 186 181 176 171 175 179 185 187 185 172 166 172 179 197 199 202 209 201 195 195 191
35 308 240 205 179 160 151 161 296 317 26 111 180 294 255 191 203 199 195 198 202 197 189 189 187 182 182 184 186 186 190 185 182 183 174 171 170 189 197 212 206 202 198 197
186 241 235 156 130 128 210 191 211 212 35 42 72 343 308 236 215 210 204 200 203 200 198 195 194 195 191 192 192 193 192 187 184 173 144 122 102 70 141 205 214 217 206 204
233 257 238 207 215 152 243 229 181 141 93 351 62 295 286 256 250 225 213 200 203 202 196 197 198 198 200 200 192 191 184 182 178 168 171 174 185 200 212 204 214 226 216 215
237 234 175 223 220 173 201 72 90 89 110 52 29 130 285 300 251 240 221 209 206 199 194 200 204 203 199 191 184 183 177 181 179 180 186 188 201 206 200 196 223 236 229 223
237 246 222 217 207 155 123 71 54 48 65 43 278 171 277 238 225 238 220 209 202 195 194 202 201 189 183 179 176 174 176 186 185 187 188 192 202 200 197 207 218 229 233 230
300 292 254 195 98 50 93 86 35 8 16 260 287 221 253 254 240 225 217 207 197 188 189 192 189 187 183 182 181 179 182 191 188 189 194 199 203 200 204 209 215 218 225 230
190 276 250 199 178 171 157 134 151 184 212 277 321 247 259 271 270 231 200 183 176 182 189 193 192 189 189 188 184 181 187 192 187 190 197 196 194 194 204 210 210 216 226 234
177 243 280 245 191 139 132 148 152 126 148 315 296 296 303 327 1 104 150 157 177 187 191 193 186 184 187 188 187 184 183 184 185 190 189 188 190 196 207 212 213 221 231 236
157 210 280 299 87 44 136 140 106 116 138 227 298 291 262 282 273 238 194 189 192 189 189 190 185 183 184 183 180 175 176 181 183 184 190 193 193 200 205 209 218 223 233 239
146 168 281 357 171 172 112 104 105 109 143 150 220 268 231 226 228 222 218 203 194 191 191 189 184 175 168 166 167 172 176 175 177 184 188 188 191 195 199 213 227 228 232 233
156 137 223 254 252 184 166 163 146 149 191 167 168 261 261 237 236 221 222 209 198 192 184 176 168 157 160 169 173 178 180 181 185 183 182 188 189 191 201 218 229 228 231 234
142 128 130 328 331 166 159 155 148 123 118 149 168 258 289 288 250 226 218 207 189 180 172 162 160 167 174 176 179 183 184 186 182 176 179 185 192 196 207 217 222 221 223 233
129 132 167 196 212 191 179 167 152 130 145 184 214 246 285 278 255 240 220 199 184 182 178 172 174 182 183 180 182 183 184 183 179 177 182 192 201 204 211 213 212 213 215 223
127 167 200 216 206 177 186 182 172 173 177 179 219 224 249 246 236 235 216 185 178 183 186 186 185 184 182 178 181 182 182 180 177 178 188 201 202 198 200 206 209 204 204 218
92 159 165 229 207 193 199 198 185 191 179 199 218 250 248 253 242 236 211 189 191 197 198 192 185 180 182 183 182 180 181 178 171 179 193 195 187 184 190 193 184 175 183 203
108 125 134 217 210 123 227 211 187 187 189 175 201 237 265 268 233 222 212 199 201 199 194 188 187 186 187 185 179 180 179 166 164 170 176 180 177 184 190 179 167 181 185 174
144 123 134 144 115 195 236 232 176 169 198 199 213 246 238 239 248 237 205 199 205 195 188 190 187 183 182 173 168 162 155 158 165 170 174 171 167 174 168 159 172 189 178 179
155 138 125 131 164 240 291 229 157 160 231 219 225 259 290 357 50 339 276 206 201 193 184 181 176 164 150 151 151 144 147 153 164 177 183 182 176 173 168 179 190 187 177 184
71 100 116 126 146 207 233 296 315 120 259 290 237 244 183 104 95 275 316 249 156 137 138 132 123 119 126 131 132 134 146 153 174 190 192 176 171 176 180 185 180 176 178 183
58 61 112 141 172 245 265 301 353 155 233 280 239 225 181 176 204 251 43 61 78 88 90 100 103 106 112 123 127 129 138 164 174 153 151 149 154 164 165 156 152 151 148 152
155 136 151 136 160 240 326 360 129 221 259 283 245 201 160 136 85 67 69 72 74 75 74 86 95 92 91 113 129 130 145 165 129 129 138 153 154 152 144 141 139 141 153 166
164 179 178 177 201 254 309 292 291 262 259 272 183 153 131 112 95 81 73 71 73 75 76 82 93 87 76 78 111 123 131 118 117 114 122 137 130 127 133 140 152 157 169 184
328 83 118 85 301 320 340 346 351 355 337 324 110 124 119 115 114 103 91 77 66 67 74 85 92 94 86 75 74 96 106 101 104 108 102 106 119 119 111 113 140 162 177 202
266 63 91 43 301 341 354 358 350 356 19 37 50 70 100 111 107 106 98 86 74 62 55 70 78 79 77 78 77 71 82 98 107 109 104 94 102 124 110 96 80 133 129 196
244 180 157 210 235 213 275 311 339 360 14 26 51 57 68 99 113 108 99 90 87 80 71 70 72 70 62 71 71 62 66 91 102 96 96 106 114 113 119 123 84 55 64 63